Weather Roundup
Issued by NWS Chicago, IL

Home | Current Version | Previous Version | Graphics & Text | Print | Product List | Glossary On
Versions: 1 2 3 4 5 6 7 8 9 10 11 12 13 14 15 16 17 18 19 20 21 22 23 24 25 26 27 28 29 30 31 32 33 34 35 36 37 38 39 40 41 42 43 44 45 46 47 48 49 50
339
NZUS59 KLOT 080303
HRRLOT

CHICAGO AREA WEATHER ROUNDUP
NATIONAL WEATHER SERVICE CHICAGO/ROMEOVILLE IL
900 PM CST SUN FEB 07 2016

NOTE: "FAIR" INDICATES FEW OR NO CLOUDS BELOW 12,000 FEET WITH NO
SIGNIFICANT WEATHER AND/OR OBSTRUCTIONS TO VISIBILITY.

* THESE STATIONS ARE NOT UNDER NWS QUALITY CONTROL. THEY ALSO MAY NOT
  REPORT WEATHER SUCH AS PRECIPITATION OR FOG.

ILZ005-006-012>014-019>023-080400-
NORTHEAST ILLINOIS

CITY           SKY/WX    TMP DP  RH WIND       PRES   REMARKS
OHARE          PTCLDY    35  27  72 W12       29.72F WCI  27
MIDWAY         PTCLDY    38  26  62 W12       29.74F
AURORA         CLEAR     33  27  78 SW8       29.75F WCI  26
LANSING*       PTCLDY    36  27  71 W9        29.76F
WAUKEGAN       CLEAR     35  27  72 W5        29.69F WCI  31
DUPAGE AIRPORT CLEAR     34  26  72 W10       29.73F WCI  26
WHEELING       CLEAR     36  28  73 W8G17     29.72F
$$

WIZ051-052-058>065-066-070>072-080400-
SOUTHEAST WISCONSIN

CITY           SKY/WX    TMP DP  RH WIND       PRES   REMARKS
MILWAUKEE      PTCLDY    36  26  67 W10       29.67F
KENOSHA*       CLEAR     35  27  72 W14       29.69S WCI  26
RACINE*        CLEAR     36  26  67 W13       29.69F
BURLINGTON     CLEAR     32  27  80 W9G16     29.69S WCI  24
WAUKESHA       CLEAR     32  27  80 SW12      29.68S WCI  23
$$

INZ001>003-010>013-019-020-080400-
NORTHWEST INDIANA

CITY           SKY/WX    TMP DP  RH WIND       PRES   REMARKS
GARY*          PTCLDY    39  27  60 SW12      29.76
MICHIGAN CITY* NOT AVBL
RENSSELAER*    NOT AVBL
VALPARAISO     PTCLDY    37  28  70 W14       29.75F
$$

LMZ740>746-080400-
SOUTHERN LAKE MICHIGAN

STATION/POSITION TIME  SKY/WX   TEMP WIND        PRES    VSBY
                                AIR  DIR/SP/G
                 (UTC)          (F)  (DEG/KT/KT) (MB)    (MI)
HARRISON CRIB    0200            41  260/ 22/ 23   N/A
BURNHAM HARBOR   0300            39  260/  6/ 16   N/A
CALUMET HARBOR   0200            40              1007.0F
BURNS HARBOR     0200            40  240/ 12/ 15 1008.5S
MICHIGAN CITY    0200            37  220/ 16/ 17   N/A
$$

ABBREVIATIONS USED IN REMARKS
   TC - TEMPERATURE IN CELSIUS
  WCI - WIND CHILL INDEX
   HX - HEAT INDEX
  VSB - VISIBILITY
$$




USA.gov is the U.S. government's official web portal to all federal, state and local government web resources and services.